Regional Weather Roundup
Issued by NWS

Home | Current Version | Previous Version | Graphics & Text | Print | Product List | Glossary On
Versions: 1 2 3 4 5 6 7 8 9 10 11 12 13 14 15 16 17 18 19 20 21 22 23 24 25 26 27 28 29 30 31 32 33 34 35 36 37 38 39 40 41 42 43 44 45 46 47 48 49
000
ASUS45 KBOU 230207
RWRCO

WEATHER ROUNDUP FOR COLORADO
NATIONAL WEATHER SERVICE DENVER/BOULDER CO
800 PM MDT SAT APR 22 2017

NOTE: "FAIR" INDICATES FEW OR NO CLOUDS BELOW 12000 FEET WITH NO
SIGNIFICANT WEATHER AND/OR OBSTRUCTIONS TO VISIBILITY.

COZ001>005-013-030-031-230300-
...NORTHWEST COLORADO...

CITY           SKY/WX    TMP DP  RH WIND       PRES   REMARKS
CRAIG          FAIR      45  31  58 SW7       30.12S
HAYDEN         FAIR      52  18  25 SW3       30.13S
MEEKER         FAIR      49  29  46 NE6       30.11F
MOUNT WERNER   NOT AVBL
STEAMBOAT SPGS FAIR      50  21  31 CALM      30.13F
WALDEN           N/A     43  19  39 S6        30.19F
$$

COZ006>008-011-230300-
...WEST CENTRAL VALLEYS...

CITY           SKY/WX    TMP DP  RH WIND       PRES   REMARKS
GRAND JUNCTION FAIR      61  18  18 W3        30.06F
MONTROSE       FAIR      57  14  18 CALM      30.11F
EAGLE          FAIR      54  20  26 CALM      30.16S
RIFLE          FAIR      56  21  25 SW3       30.10S
DELTA          FAIR      63  13  14 CALM      30.08F
NUCLA          FAIR      59  14  17 CALM      30.13F
$$

COZ017>023-064>068-230300-
...SOUTHWEST COLORADO...

CITY           SKY/WX    TMP DP  RH WIND       PRES   REMARKS
DURANGO        FAIR      54  15  21 SW9       30.15R
CORTEZ         FAIR      58  18  21 S6        30.12R
PAGOSA SPRINGS FAIR      55  15  21 SW5       30.19S
TELLURIDE      FAIR      48  15  26 W7        30.25R
WOLF CREEK PAS FAIR      32  16  51 SW16G23   30.39R WCI  21
$$

COZ009-010-012-014-032>034-037-058>063-230300-
...CENTRAL COLORADO...

CITY           SKY/WX    TMP DP  RH WIND       PRES   REMARKS
ASPEN          FAIR      48  18  30 S7        30.16S
BUENA VISTA    FAIR      43  24  47 S12G17    30.24R
COPPER MTN     FAIR      34  10  37 MISG      30.33S
BERTHOUD PASS  FAIR      21  10  63 SE13      30.33S HAZE    WCI   9
COTTONWOOD PAS FAIR      37  21  52 SE14      30.28S
GUNNISON       FAIR      52  17  25 NW6       30.17R
KREMMLING      FAIR      54  19  26 CALM      30.17S
LEADVILLE      FAIR      37  15  40 S13       30.23S
MONARCH PASS   FAIR      27  21  80 NE7       30.44R WCI  19
SALIDA         FAIR      45  28  50 SE13G24   30.30S
SUNLIGHT       FAIR      32  18  55 W3        30.32R
WILKERSON PASS FAIR      28  21  74 S6        30.35S WCI  22
$$

COZ069>075-230300-
...SAN LUIS VALLEY/SANGRE DE CRISTO MOUNTAINS...

CITY           SKY/WX    TMP DP  RH WIND       PRES   REMARKS
ALAMOSA        FAIR      45  26  47 E13       30.18R
LA VETA PASS   FAIR      27  25  93 NE14      30.42S WCI  15
SAGUACHE       FAIR      43  18  36 NE6       30.19S
$$

COZ035-036-038>040-230300-
...NORTHERN COLORADO FRONT RANGE...

CITY           SKY/WX    TMP DP  RH WIND       PRES   REMARKS
DENVER INTL AP FAIR      46  29  51 SE8       30.19F
DMNS CITY PARK   N/A     51  25  35 E12       30.19S
AURORA         PTCLDY    46  29  51 SE9       30.21S
FRONT RANGE AP PTCLDY    50  30  46 SE9       30.21F
ERIE MUNI ARPT FAIR      52  25  35 CALM      30.19S
BOULDER MUN AP FAIR      52  30  43 CALM      30.18S
CENTENNIAL     FAIR      49  27  42 SE7       30.20F
BROOMFIELD     PTCLDY    50  27  40 E6        30.20S
FORT COLLINS   FAIR      50  33  52 SE6       30.19F
LONGMONT       FAIR      53  30  41 E3        30.21S
$$

COZ041-046-047-076>085-087-088-230300-
...PIKES PEAK/PALMER DIVIDE AND SOUTHERN FOOTHILLS...

CITY           SKY/WX    TMP DP  RH WIND       PRES   REMARKS
COLO. SPRINGS  FAIR      45  33  63 S12       30.26S
A. F. ACADEMY  FAIR      43  32  65 S10       30.24S
SCHRIEVER AFB  FAIR      41  33  72 S13       30.27R
ELLICOTT       FAIR     N/A N/A N/A S7        30.25S
FALCON         FAIR      40  32  72 S7        30.27S
FORT CARSON    MOCLDY    46  34  64 S10       30.25S
LIMON          FAIR      43  32  65 S7        30.24S
MONUMENT HILL  FAIR      36  30  80 S8        30.26S
TRINIDAD       FAIR      46  30  53 SE3       30.27S
$$

COZ042>045-048>051-090-091-230300-
...NORTHEAST COLORADO...

CITY           SKY/WX    TMP DP  RH WIND       PRES   REMARKS
GREELEY ARPT   FAIR      51  35  54 SE8       30.20S
AKRON          FAIR      48  31  51 SE6       30.22S
BURLINGTON     NOT AVBL
WRAY           NOT AVBL
STERLING       FAIR      50  36  57 S3        30.20F
HOLYOKE        FAIR      52  36  54 SE9       30.22F
FORT MORGAN    FAIR      46  33  61 SE7       30.22S
$$

COZ086-089-092>099-230300-
...SOUTHEAST COLORADO...

CITY           SKY/WX    TMP DP  RH WIND       PRES   REMARKS
PUEBLO         FAIR      51  35  54 S6        30.24R
LA JUNTA       FAIR      51  37  58 E7        30.24S
LAMAR          FAIR      47  36  65 SE7       30.23S
SPRINGFIELD      N/A     42  31  64 E7        30.26S
$$



USA.gov is the U.S. government's official web portal to all federal, state and local government web resources and services.